Time,TemperatureF,DewpointF,PressureIn,WindDirection,WindDirectionDegrees,WindSpeedMPH,WindSpeedGustMPH,Humidity,HourlyPrecipIn,Conditions,Clouds,dailyrainin,SoftwareType,DateUTC
2013-02-16 00:02:00,36.6,33.1,30.28,East,85,0.0,0.0,87,0.00,,,0.00,Weather View 32 v70,2013-02-16 08:02:00,
2013-02-16 00:07:00,36.3,33.1,30.28,East,85,0.0,0.0,88,0.00,,,0.00,Weather View 32 v70,2013-02-16 08:07:00,
2013-02-16 00:12:00,36.0,32.8,30.28,East,85,0.0,0.0,88,0.00,,,0.00,Weather View 32 v70,2013-02-16 08:12:00,
2013-02-16 00:17:00,35.8,32.6,30.28,East,85,0.0,0.0,88,0.00,,,0.00,Weather View 32 v70,2013-02-16 08:17:00,
2013-02-16 00:22:00,35.8,32.6,30.28,East,85,0.0,0.0,88,0.00,,,0.00,Weather View 32 v70,2013-02-16 08:22:00,
2013-02-16 00:27:00,35.6,32.4,30.27,East,85,0.0,0.0,88,0.00,,,0.00,Weather View 32 v70,2013-02-16 08:27:00,
2013-02-16 00:32:00,35.6,32.7,30.28,East,85,0.0,0.0,89,0.00,,,0.00,Weather View 32 v70,2013-02-16 08:32:00,
2013-02-16 00:37:00,35.6,32.7,30.28,East,85,0.0,0.0,89,0.00,,,0.00,Weather View 32 v70,2013-02-16 08:37:00,
2013-02-16 00:42:00,35.8,33.2,30.28,East,85,0.0,0.0,90,0.00,,,0.00,Weather View 32 v70,2013-02-16 08:42:00,
2013-02-16 00:47:00,35.9,33.3,30.28,East,85,0.0,0.0,90,0.00,,,0.00,Weather View 32 v70,2013-02-16 08:47:00,
2013-02-16 00:52:00,35.8,33.2,30.28,East,85,0.0,1.0,90,0.00,,,0.00,Weather View 32 v70,2013-02-16 08:52:00,
2013-02-16 00:57:00,35.6,33.0,30.27,East,85,0.0,1.0,90,0.00,,,0.00,Weather View 32 v70,2013-02-16 08:57:00,
2013-02-16 01:02:00,35.5,32.9,30.27,East,85,0.0,1.0,90,0.00,,,0.00,Weather View 32 v70,2013-02-16 09:02:00,
2013-02-16 01:07:00,35.2,32.6,30.27,East,85,0.0,1.0,90,0.00,,,0.00,Weather View 32 v70,2013-02-16 09:07:00,
2013-02-16 01:12:00,35.0,32.4,30.27,East,85,0.0,1.0,90,0.00,,,0.00,Weather View 32 v70,2013-02-16 09:12:00,
2013-02-16 01:17:00,34.9,32.3,30.27,East,85,0.0,1.0,90,0.00,,,0.00,Weather View 32 v70,2013-02-16 09:17:00,
2013-02-16 01:22:00,34.4,31.8,30.27,East,85,0.0,1.0,90,0.00,,,0.00,Weather View 32 v70,2013-02-16 09:22:00,
2013-02-16 01:27:00,34.3,31.7,30.27,East,85,0.0,1.0,90,0.00,,,0.00,Weather View 32 v70,2013-02-16 09:27:00,
2013-02-16 01:32:00,34.3,31.7,30.27,East,85,0.0,1.0,90,0.00,,,0.00,Weather View 32 v70,2013-02-16 09:32:00,
2013-02-16 01:37:00,34.6,32.2,30.27,East,85,0.0,1.0,91,0.00,,,0.00,Weather View 32 v70,2013-02-16 09:37:00,
2013-02-16 01:42:00,34.4,31.8,30.27,East,85,0.0,1.0,90,0.00,,,0.00,Weather View 32 v70,2013-02-16 09:42:00,
2013-02-16 01:47:00,34.9,32.5,30.27,East,85,0.0,1.0,91,0.00,,,0.00,Weather View 32 v70,2013-02-16 09:47:00,
2013-02-16 01:52:00,35.2,32.8,30.27,East,85,0.0,0.0,91,0.00,,,0.00,Weather View 32 v70,2013-02-16 09:52:00,
2013-02-16 01:57:00,34.7,32.1,30.27,East,85,0.0,0.0,90,0.00,,,0.00,Weather View 32 v70,2013-02-16 09:57:00,
2013-02-16 02:02:00,34.4,31.8,30.27,East,85,0.0,0.0,90,0.00,,,0.00,Weather View 32 v70,2013-02-16 10:02:00,
2013-02-16 02:07:00,34.0,31.4,30.27,East,85,0.0,0.0,90,0.00,,,0.00,Weather View 32 v70,2013-02-16 10:07:00,
2013-02-16 02:12:00,33.5,30.9,30.27,East,85,0.0,0.0,90,0.00,,,0.00,Weather View 32 v70,2013-02-16 10:12:00,
2013-02-16 02:17:00,33.4,30.8,30.27,East,85,0.0,0.0,90,0.00,,,0.00,Weather View 32 v70,2013-02-16 10:17:00,
2013-02-16 02:22:00,33.2,30.6,30.27,East,85,0.0,0.0,90,0.00,,,0.00,Weather View 32 v70,2013-02-16 10:22:00,
2013-02-16 02:27:00,32.9,30.3,30.27,East,85,0.0,0.0,90,0.00,,,0.00,Weather View 32 v70,2013-02-16 10:27:00,
2013-02-16 02:32:00,32.8,30.2,30.27,East,85,0.0,0.0,90,0.00,,,0.00,Weather View 32 v70,2013-02-16 10:32:00,
2013-02-16 02:37:00,32.9,30.6,30.26,East,85,0.0,0.0,91,0.00,,,0.00,Weather View 32 v70,2013-02-16 10:37:00,
2013-02-16 02:42:00,33.1,30.8,30.26,East,85,0.0,0.0,91,0.00,,,0.00,Weather View 32 v70,2013-02-16 10:42:00,
2013-02-16 02:47:00,33.7,31.6,30.26,East,85,0.0,0.0,92,0.00,,,0.00,Weather View 32 v70,2013-02-16 10:47:00,
2013-02-16 02:52:00,34.0,31.9,30.26,East,85,0.0,0.0,92,0.00,,,0.00,Weather View 32 v70,2013-02-16 10:52:00,
2013-02-16 02:57:00,34.1,32.0,30.26,East,85,0.0,0.0,92,0.00,,,0.00,Weather View 32 v70,2013-02-16 10:57:00,
2013-02-16 03:02:00,34.1,32.0,30.26,East,85,0.0,0.0,92,0.00,,,0.00,Weather View 32 v70,2013-02-16 11:02:00,
2013-02-16 03:07:00,34.0,31.9,30.25,East,85,0.0,0.0,92,0.00,,,0.00,Weather View 32 v70,2013-02-16 11:07:00,
2013-02-16 03:12:00,34.0,31.6,30.26,East,85,0.0,0.0,91,0.00,,,0.00,Weather View 32 v70,2013-02-16 11:12:00,
2013-02-16 03:17:00,33.8,31.5,30.26,East,85,0.0,0.0,91,0.00,,,0.00,Weather View 32 v70,2013-02-16 11:17:00,
2013-02-16 03:22:00,34.1,32.0,30.26,East,85,0.0,0.0,92,0.00,,,0.00,Weather View 32 v70,2013-02-16 11:22:00,
2013-02-16 03:27:00,34.0,31.6,30.25,East,85,0.0,0.0,91,0.00,,,0.00,Weather View 32 v70,2013-02-16 11:27:00,
2013-02-16 03:32:00,33.7,31.4,30.25,East,85,0.0,0.0,91,0.00,,,0.00,Weather View 32 v70,2013-02-16 11:32:00,
2013-02-16 03:37:00,33.8,31.7,30.25,East,85,0.0,0.0,92,0.00,,,0.00,Weather View 32 v70,2013-02-16 11:37:00,
2013-02-16 03:42:00,33.8,31.7,30.25,East,85,0.0,0.0,92,0.00,,,0.00,Weather View 32 v70,2013-02-16 11:42:00,
2013-02-16 03:47:00,33.8,31.7,30.25,East,85,0.0,0.0,92,0.00,,,0.00,Weather View 32 v70,2013-02-16 11:47:00,
2013-02-16 03:52:00,33.7,31.6,30.24,East,85,0.0,0.0,92,0.00,,,0.00,Weather View 32 v70,2013-02-16 11:52:00,
2013-02-16 03:57:00,33.5,31.2,30.24,East,85,0.0,0.0,91,0.00,,,0.00,Weather View 32 v70,2013-02-16 11:57:00,
2013-02-16 04:02:00,33.5,31.4,30.24,East,85,0.0,0.0,92,0.00,,,0.00,Weather View 32 v70,2013-02-16 12:02:00,
2013-02-16 04:07:00,33.2,30.9,30.24,East,85,0.0,0.0,91,0.00,,,0.00,Weather View 32 v70,2013-02-16 12:07:00,
2013-02-16 04:12:00,32.8,30.5,30.24,East,85,0.0,0.0,91,0.00,,,0.00,Weather View 32 v70,2013-02-16 12:12:00,
2013-02-16 04:17:00,32.7,30.4,30.24,East,85,0.0,0.0,91,0.00,,,0.00,Weather View 32 v70,2013-02-16 12:17:00,
2013-02-16 04:22:00,32.5,30.2,30.24,East,85,0.0,0.0,91,0.00,,,0.00,Weather View 32 v70,2013-02-16 12:22:00,
2013-02-16 04:27:00,32.7,30.6,30.24,East,85,0.0,0.0,92,0.00,,,0.00,Weather View 32 v70,2013-02-16 12:27:00,
2013-02-16 04:32:00,32.9,30.8,30.23,East,85,0.0,0.0,92,0.00,,,0.00,Weather View 32 v70,2013-02-16 12:32:00,
2013-02-16 04:37:00,33.2,31.1,30.24,East,85,0.0,0.0,92,0.00,,,0.00,Weather View 32 v70,2013-02-16 12:37:00,
2013-02-16 04:42:00,33.2,31.1,30.23,East,85,0.0,0.0,92,0.00,,,0.00,Weather View 32 v70,2013-02-16 12:42:00,
2013-02-16 04:47:00,33.4,31.3,30.23,East,85,0.0,0.0,92,0.00,,,0.00,Weather View 32 v70,2013-02-16 12:47:00,
2013-02-16 04:52:00,33.4,31.3,30.23,East,85,0.0,0.0,92,0.00,,,0.00,Weather View 32 v70,2013-02-16 12:52:00,
2013-02-16 04:57:00,33.4,31.3,30.23,East,85,0.0,0.0,92,0.00,,,0.00,Weather View 32 v70,2013-02-16 12:57:00,
2013-02-16 05:02:00,33.2,31.1,30.23,East,85,0.0,0.0,92,0.00,,,0.00,Weather View 32 v70,2013-02-16 13:02:00,
2013-02-16 05:07:00,32.9,30.8,30.23,East,85,0.0,0.0,92,0.00,,,0.00,Weather View 32 v70,2013-02-16 13:07:00,
2013-02-16 05:12:00,32.9,30.8,30.23,East,85,0.0,0.0,92,0.00,,,0.00,Weather View 32 v70,2013-02-16 13:12:00,
2013-02-16 05:17:00,32.5,30.2,30.23,East,85,0.0,0.0,91,0.00,,,0.00,Weather View 32 v70,2013-02-16 13:17:00,
2013-02-16 05:22:00,32.1,29.8,30.23,East,85,0.0,0.0,91,0.00,,,0.00,Weather View 32 v70,2013-02-16 13:22:00,
2013-02-16 05:27:00,31.9,29.8,30.23,East,85,0.0,0.0,92,0.00,,,0.00,Weather View 32 v70,2013-02-16 13:27:00,
2013-02-16 05:32:00,31.8,29.7,30.23,East,85,0.0,0.0,92,0.00,,,0.00,Weather View 32 v70,2013-02-16 13:32:00,
2013-02-16 05:37:00,31.6,29.5,30.23,East,85,0.0,0.0,92,0.00,,,0.00,Weather View 32 v70,2013-02-16 13:37:00,
2013-02-16 05:42:00,31.3,29.0,30.23,East,85,0.0,0.0,91,0.00,,,0.00,Weather View 32 v70,2013-02-16 13:42:00,
2013-02-16 05:47:00,30.9,28.6,30.23,East,85,0.0,0.0,91,0.00,,,0.00,Weather View 32 v70,2013-02-16 13:47:00,
2013-02-16 05:52:00,30.7,28.7,30.23,East,85,0.0,0.0,92,0.00,,,0.00,Weather View 32 v70,2013-02-16 13:52:00,
2013-02-16 05:57:00,30.9,28.8,30.23,East,85,0.0,0.0,92,0.00,,,0.00,Weather View 32 v70,2013-02-16 13:57:00,
2013-02-16 06:02:00,30.7,28.7,30.23,East,85,0.0,0.0,92,0.00,,,0.00,Weather View 32 v70,2013-02-16 14:02:00,
2013-02-16 06:07:00,30.9,28.8,30.23,East,85,0.0,0.0,92,0.00,,,0.00,Weather View 32 v70,2013-02-16 14:07:00,
2013-02-16 06:12:00,30.9,28.8,30.23,East,85,0.0,0.0,92,0.00,,,0.00,Weather View 32 v70,2013-02-16 14:12:00,
2013-02-16 06:17:00,30.9,28.8,30.22,East,85,0.0,0.0,92,0.00,,,0.00,Weather View 32 v70,2013-02-16 14:17:00,
2013-02-16 06:22:00,30.7,28.7,30.22,East,85,0.0,0.0,92,0.00,,,0.00,Weather View 32 v70,2013-02-16 14:22:00,
2013-02-16 06:27:00,30.7,28.7,30.22,East,85,0.0,0.0,92,0.00,,,0.00,Weather View 32 v70,2013-02-16 14:27:00,
2013-02-16 06:32:00,30.6,28.6,30.22,East,85,0.0,0.0,92,0.00,,,0.00,Weather View 32 v70,2013-02-16 14:32:00,
2013-02-16 06:37:00,30.6,28.6,30.22,East,85,0.0,0.0,92,0.00,,,0.00,Weather View 32 v70,2013-02-16 14:37:00,
2013-02-16 06:42:00,30.6,28.6,30.22,East,85,0.0,0.0,92,0.00,,,0.00,Weather View 32 v70,2013-02-16 14:42:00,
2013-02-16 06:47:00,30.7,28.7,30.22,East,85,0.0,0.0,92,0.00,,,0.00,Weather View 32 v70,2013-02-16 14:47:00,
2013-02-16 06:52:00,30.6,28.6,30.21,East,85,0.0,0.0,92,0.00,,,0.00,Weather View 32 v70,2013-02-16 14:52:00,
2013-02-16 06:57:00,30.4,28.4,30.21,East,85,0.0,0.0,92,0.00,,,0.00,Weather View 32 v70,2013-02-16 14:57:00,
2013-02-16 07:02:00,30.6,28.6,30.21,East,85,0.0,0.0,92,0.00,,,0.00,Weather View 32 v70,2013-02-16 15:02:00,
2013-02-16 07:07:00,30.6,28.6,30.21,East,85,0.0,0.0,92,0.00,,,0.00,Weather View 32 v70,2013-02-16 15:07:00,
2013-02-16 07:12:00,30.4,28.4,30.21,East,85,0.0,0.0,92,0.00,,,0.00,Weather View 32 v70,2013-02-16 15:12:00,
2013-02-16 07:17:00,30.6,28.6,30.22,East,85,0.0,0.0,92,0.00,,,0.00,Weather View 32 v70,2013-02-16 15:17:00,
2013-02-16 07:22:00,30.7,28.7,30.22,East,85,0.0,0.0,92,0.00,,,0.00,Weather View 32 v70,2013-02-16 15:22:00,
2013-02-16 07:27:00,30.9,29.1,30.22,East,85,0.0,0.0,93,0.00,,,0.00,Weather View 32 v70,2013-02-16 15:27:00,
2013-02-16 07:32:00,31.2,29.4,30.22,East,85,0.0,0.0,93,0.00,,,0.00,Weather View 32 v70,2013-02-16 15:32:00,
2013-02-16 07:37:00,31.5,29.7,30.22,East,85,0.0,0.0,93,0.00,,,0.00,Weather View 32 v70,2013-02-16 15:37:00,
2013-02-16 07:42:00,32.2,30.4,30.22,East,85,0.0,0.0,93,0.00,,,0.00,Weather View 32 v70,2013-02-16 15:42:00,
2013-02-16 07:47:00,33.1,31.3,30.22,East,85,0.0,0.0,93,0.00,,,0.00,Weather View 32 v70,2013-02-16 15:47:00,
2013-02-16 07:52:00,34.0,32.5,30.22,East,85,0.0,0.0,94,0.00,,,0.00,Weather View 32 v70,2013-02-16 15:52:00,
2013-02-16 07:57:00,35.0,33.4,30.22,East,86,0.0,0.0,94,0.00,,,0.00,Weather View 32 v70,2013-02-16 15:57:00,
2013-02-16 08:02:00,36.9,35.3,30.22,East,96,3.0,5.0,94,0.00,,,0.00,Weather View 32 v70,2013-02-16 16:02:00,
2013-02-16 08:07:00,37.6,36.0,30.22,East,97,1.0,7.0,94,0.00,,,0.00,Weather View 32 v70,2013-02-16 16:07:00,
2013-02-16 08:12:00,38.0,36.4,30.22,East,98,3.0,7.0,94,0.00,,,0.00,Weather View 32 v70,2013-02-16 16:12:00,
2013-02-16 08:17:00,38.3,36.7,30.22,East,99,1.0,7.0,94,0.00,,,0.00,Weather View 32 v70,2013-02-16 16:17:00,
2013-02-16 08:22:00,38.6,37.0,30.22,SE,129,0.0,7.0,94,0.00,,,0.00,Weather View 32 v70,2013-02-16 16:22:00,
2013-02-16 08:27:00,38.9,37.0,30.22,SE,129,0.0,7.0,93,0.00,,,0.00,Weather View 32 v70,2013-02-16 16:27:00,
2013-02-16 08:32:00,39.2,37.3,30.22,SE,129,0.0,7.0,93,0.00,,,0.00,Weather View 32 v70,2013-02-16 16:32:00,
2013-02-16 08:37:00,39.6,37.7,30.22,SE,129,0.0,7.0,93,0.00,,,0.00,Weather View 32 v70,2013-02-16 16:37:00,
2013-02-16 08:42:00,39.9,38.0,30.22,SE,130,0.0,7.0,93,0.00,,,0.00,Weather View 32 v70,2013-02-16 16:42:00,
2013-02-16 08:47:00,40.5,38.6,30.22,SSE,147,0.0,7.0,93,0.00,,,0.00,Weather View 32 v70,2013-02-16 16:47:00,
2013-02-16 08:52:00,41.1,39.2,30.22,SSE,147,0.0,7.0,93,0.00,,,0.00,Weather View 32 v70,2013-02-16 16:52:00,
2013-02-16 08:57:00,41.5,39.6,30.22,SE,145,0.0,7.0,93,0.00,,,0.00,Weather View 32 v70,2013-02-16 16:57:00,
2013-02-16 09:02:00,41.8,39.6,30.22,SE,142,0.0,7.0,92,0.00,,,0.00,Weather View 32 v70,2013-02-16 17:02:00,
2013-02-16 09:07:00,41.9,39.7,30.22,NW,308,5.0,5.0,92,0.00,,,0.00,Weather View 32 v70,2013-02-16 17:07:00,
2013-02-16 09:12:00,42.3,40.1,30.22,WNW,302,1.0,7.0,92,0.00,,,0.00,Weather View 32 v70,2013-02-16 17:12:00,
2013-02-16 09:17:00,42.6,40.2,30.22,WNW,298,7.0,8.0,91,0.00,,,0.00,Weather View 32 v70,2013-02-16 17:17:00,
2013-02-16 09:22:00,42.9,40.2,30.22,WNW,297,3.0,11.0,90,0.00,,,0.00,Weather View 32 v70,2013-02-16 17:22:00,
2013-02-16 09:27:00,42.9,40.2,30.22,WNW,295,0.0,11.0,90,0.00,,,0.00,Weather View 32 v70,2013-02-16 17:27:00,
2013-02-16 09:32:00,43.1,40.4,30.22,NNW,330,4.0,11.0,90,0.00,,,0.00,Weather View 32 v70,2013-02-16 17:32:00,
2013-02-16 09:37:00,43.5,40.8,30.22,NW,306,3.0,11.0,90,0.00,,,0.00,Weather View 32 v70,2013-02-16 17:37:00,
2013-02-16 09:42:00,44.2,41.2,30.21,WNW,296,2.0,11.0,89,0.00,,,0.00,Weather View 32 v70,2013-02-16 17:42:00,
2013-02-16 09:47:00,44.8,41.5,30.22,NW,304,3.0,11.0,88,0.00,,,0.00,Weather View 32 v70,2013-02-16 17:47:00,
2013-02-16 09:52:00,45.1,41.2,30.22,WNW,286,2.0,11.0,86,0.00,,,0.00,Weather View 32 v70,2013-02-16 17:52:00,
2013-02-16 09:57:00,45.1,40.9,30.22,WNW,284,3.0,11.0,85,0.00,,,0.00,Weather View 32 v70,2013-02-16 17:57:00,
2013-02-16 10:02:00,45.1,40.5,30.22,West,276,9.0,11.0,84,0.00,,,0.00,Weather View 32 v70,2013-02-16 18:02:00,
2013-02-16 10:07:00,45.1,40.5,30.22,WNW,301,7.0,11.0,84,0.00,,,0.00,Weather View 32 v70,2013-02-16 18:07:00,
2013-02-16 10:12:00,45.1,40.9,30.22,WNW,296,0.0,11.0,85,0.00,,,0.00,Weather View 32 v70,2013-02-16 18:12:00,
2013-02-16 10:17:00,44.9,40.7,30.22,WNW,296,6.0,15.0,85,0.00,,,0.00,Weather View 32 v70,2013-02-16 18:17:00,
2013-02-16 10:22:00,45.1,40.9,30.22,West,273,1.0,15.0,85,0.00,,,0.00,Weather View 32 v70,2013-02-16 18:22:00,
2013-02-16 10:27:00,45.4,41.1,30.22,WNW,294,3.0,15.0,85,0.00,,,0.00,Weather View 32 v70,2013-02-16 18:27:00,
2013-02-16 10:32:00,45.7,41.1,30.23,West,278,3.0,15.0,84,0.00,,,0.00,Weather View 32 v70,2013-02-16 18:32:00,
2013-02-16 10:37:00,46.0,41.1,30.22,West,275,4.0,15.0,83,0.00,,,0.00,Weather View 32 v70,2013-02-16 18:37:00,
2013-02-16 10:42:00,46.1,40.9,30.22,West,278,6.0,15.0,82,0.00,,,0.00,Weather View 32 v70,2013-02-16 18:42:00,
2013-02-16 10:48:00,46.4,40.6,30.22,West,271,4.0,15.0,80,0.00,,,0.00,Weather View 32 v70,2013-02-16 18:48:00,
2013-02-16 10:53:00,46.5,41.0,30.22,WNW,292,6.0,15.0,81,0.00,,,0.00,Weather View 32 v70,2013-02-16 18:53:00,
2013-02-16 10:58:00,46.7,40.8,30.23,West,270,5.0,15.0,80,0.00,,,0.00,Weather View 32 v70,2013-02-16 18:58:00,
2013-02-16 11:03:00,46.7,40.5,30.23,WSW,248,4.0,15.0,79,0.00,,,0.00,Weather View 32 v70,2013-02-16 19:03:00,
2013-02-16 11:08:00,46.7,40.2,30.22,West,277,0.0,15.0,78,0.00,,,0.00,Weather View 32 v70,2013-02-16 19:08:00,
2013-02-16 11:13:00,47.6,41.1,30.22,WNW,289,3.0,15.0,78,0.00,,,0.00,Weather View 32 v70,2013-02-16 19:13:00,
2013-02-16 11:18:00,48.2,41.0,30.22,WSW,258,0.0,15.0,76,0.00,,,0.00,Weather View 32 v70,2013-02-16 19:18:00,
2013-02-16 11:23:00,48.5,40.6,30.22,West,281,2.0,15.0,74,0.00,,,0.00,Weather View 32 v70,2013-02-16 19:23:00,
2013-02-16 11:28:00,48.6,40.7,30.21,WSW,238,4.0,14.0,74,0.00,,,0.00,Weather View 32 v70,2013-02-16 19:28:00,
2013-02-16 11:33:00,48.6,41.0,30.21,WNW,289,4.0,14.0,75,0.00,,,0.00,Weather View 32 v70,2013-02-16 19:33:00,
2013-02-16 11:38:00,47.9,40.3,30.21,WNW,289,1.0,18.0,75,0.00,,,0.00,Weather View 32 v70,2013-02-16 19:38:00,
2013-02-16 11:43:00,47.7,40.8,30.21,West,259,5.0,18.0,77,0.00,,,0.00,Weather View 32 v70,2013-02-16 19:43:00,
2013-02-16 11:48:00,48.2,41.0,30.21,WNW,295,3.0,18.0,76,0.00,,,0.00,Weather View 32 v70,2013-02-16 19:48:00,
2013-02-16 11:53:00,48.9,41.0,30.20,NW,312,5.0,18.0,74,0.00,,,0.00,Weather View 32 v70,2013-02-16 19:53:00,
2013-02-16 11:58:00,49.4,42.1,30.20,WNW,290,6.0,18.0,76,0.00,,,0.00,Weather View 32 v70,2013-02-16 19:58:00,
2013-02-16 12:03:00,49.1,42.2,30.20,West,266,6.0,18.0,77,0.00,,,0.00,Weather View 32 v70,2013-02-16 20:03:00,
2013-02-16 12:08:00,48.6,41.7,30.20,West,263,6.0,18.0,77,0.00,,,0.00,Weather View 32 v70,2013-02-16 20:08:00,
2013-02-16 12:13:00,48.2,42.3,30.20,NW,309,9.0,18.0,80,0.00,,,0.00,Weather View 32 v70,2013-02-16 20:13:00,
2013-02-16 12:18:00,48.2,42.3,30.20,West,271,4.0,18.0,80,0.00,,,0.00,Weather View 32 v70,2013-02-16 20:18:00,
2013-02-16 12:23:00,48.3,42.1,30.20,WNW,291,1.0,18.0,79,0.00,,,0.00,Weather View 32 v70,2013-02-16 20:23:00,
2013-02-16 12:28:00,48.2,41.7,30.20,NW,307,4.0,18.0,78,0.00,,,0.00,Weather View 32 v70,2013-02-16 20:28:00,
2013-02-16 12:33:00,47.9,41.0,30.19,NW,306,6.0,18.0,77,0.00,,,0.00,Weather View 32 v70,2013-02-16 20:33:00,
2013-02-16 12:38:00,47.7,41.5,30.19,West,279,8.0,15.0,79,0.00,,,0.00,Weather View 32 v70,2013-02-16 20:38:00,
2013-02-16 12:43:00,47.6,41.4,30.19,WNW,295,3.0,15.0,79,0.00,,,0.00,Weather View 32 v70,2013-02-16 20:43:00,
2013-02-16 12:48:00,47.6,41.4,30.19,WSW,257,6.0,15.0,79,0.00,,,0.00,Weather View 32 v70,2013-02-16 20:48:00,
2013-02-16 12:53:00,47.4,41.2,30.19,West,261,4.0,15.0,79,0.00,,,0.00,Weather View 32 v70,2013-02-16 20:53:00,
2013-02-16 12:58:00,47.4,41.5,30.18,West,280,4.0,15.0,80,0.00,,,0.00,Weather View 32 v70,2013-02-16 20:58:00,
2013-02-16 13:03:00,47.7,42.1,30.18,West,281,7.0,15.0,81,0.00,,,0.00,Weather View 32 v70,2013-02-16 21:03:00,
2013-02-16 13:08:00,48.3,42.4,30.18,NW,315,11.0,14.0,80,0.00,,,0.00,Weather View 32 v70,2013-02-16 21:08:00,
2013-02-16 13:13:00,48.8,41.9,30.18,West,268,5.0,14.0,77,0.00,,,0.00,Weather View 32 v70,2013-02-16 21:13:00,
2013-02-16 13:18:00,48.9,41.7,30.18,WNW,284,5.0,16.0,76,0.00,,,0.00,Weather View 32 v70,2013-02-16 21:18:00,
2013-02-16 13:23:00,49.2,42.6,30.18,WNW,293,9.0,16.0,78,0.00,,,0.00,Weather View 32 v70,2013-02-16 21:23:00,
2013-02-16 13:28:00,49.4,41.8,30.18,WSW,244,16.0,20.0,75,0.00,,,0.00,Weather View 32 v70,2013-02-16 21:28:00,
2013-02-16 13:33:00,49.6,40.9,30.18,West,279,3.0,20.0,72,0.00,,,0.00,Weather View 32 v70,2013-02-16 21:33:00,
2013-02-16 13:38:00,50.1,41.8,30.18,WNW,296,7.0,20.0,73,0.00,,,0.00,Weather View 32 v70,2013-02-16 21:38:00,
2013-02-16 13:43:00,49.6,42.0,30.18,WNW,303,15.0,20.0,75,0.00,,,0.00,Weather View 32 v70,2013-02-16 21:43:00,
2013-02-16 13:48:00,48.9,42.0,30.18,WNW,292,3.0,20.0,77,0.00,,,0.00,Weather View 32 v70,2013-02-16 21:48:00,
2013-02-16 13:53:00,48.9,42.7,30.18,West,261,2.0,20.0,79,0.00,,,0.00,Weather View 32 v70,2013-02-16 21:53:00,
2013-02-16 13:58:00,48.8,41.6,30.17,WNW,298,4.0,20.0,76,0.00,,,0.00,Weather View 32 v70,2013-02-16 21:58:00,
2013-02-16 14:03:00,48.9,42.0,30.17,WNW,288,3.0,20.0,77,0.00,,,0.00,Weather View 32 v70,2013-02-16 22:03:00,
2013-02-16 14:08:00,49.1,41.8,30.17,WNW,301,3.0,20.0,76,0.00,,,0.00,Weather View 32 v70,2013-02-16 22:08:00,
2013-02-16 14:13:00,49.2,42.6,30.17,NW,304,3.0,20.0,78,0.00,,,0.00,Weather View 32 v70,2013-02-16 22:13:00,
2013-02-16 14:18:00,49.4,42.5,30.17,West,269,5.0,20.0,77,0.00,,,0.00,Weather View 32 v70,2013-02-16 22:18:00,
2013-02-16 14:23:00,49.9,41.9,30.17,WNW,294,2.0,20.0,74,0.00,,,0.00,Weather View 32 v70,2013-02-16 22:23:00,
2013-02-16 14:28:00,50.1,42.1,30.17,NNW,336,10.0,18.0,74,0.00,,,0.00,Weather View 32 v70,2013-02-16 22:28:00,
2013-02-16 14:33:00,49.4,41.4,30.17,West,277,5.0,18.0,74,0.00,,,0.00,Weather View 32 v70,2013-02-16 22:33:00,
2013-02-16 14:38:00,49.5,41.2,30.17,NW,319,10.0,18.0,73,0.00,,,0.00,Weather View 32 v70,2013-02-16 22:38:00,
2013-02-16 14:43:00,50.1,41.4,30.17,WNW,290,3.0,18.0,72,0.00,,,0.00,Weather View 32 v70,2013-02-16 22:43:00,
2013-02-16 14:48:00,50.5,40.7,30.17,WNW,286,4.0,18.0,69,0.00,,,0.00,Weather View 32 v70,2013-02-16 22:48:00,
2013-02-16 14:53:00,50.2,40.4,30.18,West,279,3.0,18.0,69,0.00,,,0.00,Weather View 32 v70,2013-02-16 22:53:00,
2013-02-16 14:58:00,49.1,40.8,30.18,WNW,294,8.0,18.0,73,0.00,,,0.00,Weather View 32 v70,2013-02-16 22:58:00,
2013-02-16 15:03:00,47.6,40.4,30.18,WNW,283,5.0,18.0,76,0.01,,,0.01,Weather View 32 v70,2013-02-16 23:03:00,
2013-02-16 15:08:00,46.4,39.9,30.18,West,281,4.0,21.0,78,0.02,,,0.02,Weather View 32 v70,2013-02-16 23:08:00,
2013-02-16 15:13:00,46.1,40.6,30.18,West,267,5.0,21.0,81,0.02,,,0.02,Weather View 32 v70,2013-02-16 23:13:00,
2013-02-16 15:18:00,45.8,40.3,30.18,WSW,252,3.0,21.0,81,0.03,,,0.03,Weather View 32 v70,2013-02-16 23:18:00,
2013-02-16 15:23:00,46.1,41.2,30.18,WSW,250,4.0,21.0,83,0.03,,,0.03,Weather View 32 v70,2013-02-16 23:23:00,
2013-02-16 15:28:00,46.7,41.5,30.19,WNW,302,1.0,21.0,82,0.03,,,0.03,Weather View 32 v70,2013-02-16 23:28:00,
2013-02-16 15:33:00,46.7,41.2,30.19,NW,314,10.0,21.0,81,0.03,,,0.03,Weather View 32 v70,2013-02-16 23:33:00,
2013-02-16 15:38:00,46.7,41.2,30.19,West,271,0.0,21.0,81,0.03,,,0.03,Weather View 32 v70,2013-02-16 23:38:00,
2013-02-16 15:43:00,46.8,41.3,30.19,WNW,291,1.0,21.0,81,0.03,,,0.03,Weather View 32 v70,2013-02-16 23:43:00,
2013-02-16 15:48:00,47.1,41.6,30.19,WNW,289,2.0,21.0,81,0.03,,,0.03,Weather View 32 v70,2013-02-16 23:48:00,
2013-02-16 15:53:00,47.3,41.8,30.18,WNW,293,10.0,21.0,81,0.03,,,0.03,Weather View 32 v70,2013-02-16 23:53:00,
2013-02-16 15:58:00,46.8,40.0,30.18,WSW,257,7.0,21.0,77,0.03,,,0.03,Weather View 32 v70,2013-02-16 23:58:00,
2013-02-16 16:03:00,46.8,40.3,30.18,WNW,287,5.0,21.0,78,0.02,,,0.03,Weather View 32 v70,2013-02-17 00:03:00,
2013-02-16 16:08:00,46.4,39.9,30.18,WNW,294,5.0,21.0,78,0.01,,,0.03,Weather View 32 v70,2013-02-17 00:08:00,
2013-02-16 16:13:00,46.2,39.7,30.18,West,281,6.0,16.0,78,0.01,,,0.03,Weather View 32 v70,2013-02-17 00:13:00,
2013-02-16 16:18:00,46.0,39.8,30.18,WSW,247,6.0,16.0,79,0.00,,,0.03,Weather View 32 v70,2013-02-17 00:18:00,
2013-02-16 16:23:00,46.1,39.6,30.18,WNW,285,3.0,16.0,78,0.00,,,0.03,Weather View 32 v70,2013-02-17 00:23:00,
2013-02-16 16:28:00,46.2,39.7,30.18,WNW,282,4.0,16.0,78,0.00,,,0.03,Weather View 32 v70,2013-02-17 00:28:00,
2013-02-16 16:33:00,46.0,39.5,30.18,WNW,284,2.0,16.0,78,0.00,,,0.03,Weather View 32 v70,2013-02-17 00:33:00,
2013-02-16 16:38:00,45.7,39.6,30.18,West,260,4.0,16.0,79,0.00,,,0.03,Weather View 32 v70,2013-02-17 00:38:00,
2013-02-16 16:43:00,45.4,39.6,30.18,West,279,3.0,16.0,80,0.00,,,0.03,Weather View 32 v70,2013-02-17 00:43:00,
2013-02-16 16:48:00,45.2,39.1,30.18,WSW,257,5.0,16.0,79,0.00,,,0.03,Weather View 32 v70,2013-02-17 00:48:00,
2013-02-16 16:53:00,45.5,39.0,30.18,WSW,244,3.0,16.0,78,0.00,,,0.03,Weather View 32 v70,2013-02-17 00:53:00,
2013-02-16 16:58:00,45.5,39.0,30.18,West,268,3.0,16.0,78,0.00,,,0.03,Weather View 32 v70,2013-02-17 00:58:00,
2013-02-16 17:03:00,45.5,39.0,30.18,West,268,0.0,16.0,78,0.00,,,0.03,Weather View 32 v70,2013-02-17 01:03:00,
2013-02-16 17:08:00,45.5,39.0,30.18,West,263,2.0,11.0,78,0.00,,,0.03,Weather View 32 v70,2013-02-17 01:08:00,
2013-02-16 17:13:00,45.5,39.0,30.18,WSW,237,1.0,11.0,78,0.00,,,0.03,Weather View 32 v70,2013-02-17 01:13:00,
2013-02-16 17:18:00,45.5,39.0,30.18,West,261,0.0,11.0,78,0.00,,,0.03,Weather View 32 v70,2013-02-17 01:18:00,
2013-02-16 17:23:00,45.5,39.0,30.18,West,261,2.0,11.0,78,0.00,,,0.03,Weather View 32 v70,2013-02-17 01:23:00,
2013-02-16 17:28:00,45.5,39.0,30.18,West,267,3.0,11.0,78,0.00,,,0.03,Weather View 32 v70,2013-02-17 01:28:00,
2013-02-16 17:33:00,45.5,39.4,30.18,West,260,3.0,11.0,79,0.00,,,0.03,Weather View 32 v70,2013-02-17 01:33:00,
2013-02-16 17:38:00,45.5,39.0,30.18,WSW,242,7.0,12.0,78,0.00,,,0.03,Weather View 32 v70,2013-02-17 01:38:00,
2013-02-16 17:43:00,45.4,38.6,30.18,WSW,252,6.0,12.0,77,0.00,,,0.03,Weather View 32 v70,2013-02-17 01:43:00,
2013-02-16 17:48:00,45.4,37.6,30.18,West,263,4.0,13.0,74,0.00,,,0.03,Weather View 32 v70,2013-02-17 01:48:00,
2013-02-16 17:53:00,45.2,37.4,30.18,West,281,4.0,13.0,74,0.00,,,0.03,Weather View 32 v70,2013-02-17 01:53:00,
2013-02-16 17:58:00,45.1,37.3,30.17,NW,313,7.0,13.0,74,0.00,,,0.03,Weather View 32 v70,2013-02-17 01:58:00,
2013-02-16 18:03:00,44.9,37.8,30.17,SW,222,5.0,13.0,76,0.00,,,0.03,Weather View 32 v70,2013-02-17 02:03:00,
2013-02-16 18:08:00,44.8,37.7,30.17,West,267,1.0,13.0,76,0.00,,,0.03,Weather View 32 v70,2013-02-17 02:08:00,
2013-02-16 18:13:00,44.8,38.0,30.18,West,263,0.0,13.0,77,0.00,,,0.03,Weather View 32 v70,2013-02-17 02:13:00,
2013-02-16 18:18:00,44.6,37.8,30.17,West,273,4.0,13.0,77,0.00,,,0.03,Weather View 32 v70,2013-02-17 02:18:00,
2013-02-16 18:23:00,44.8,38.3,30.18,WSW,240,1.0,13.0,78,0.00,,,0.03,Weather View 32 v70,2013-02-17 02:23:00,
2013-02-16 18:28:00,44.9,38.4,30.17,West,259,6.0,13.0,78,0.00,,,0.03,Weather View 32 v70,2013-02-17 02:28:00,
2013-02-16 18:33:00,44.9,38.4,30.17,WSW,248,5.0,13.0,78,0.00,,,0.03,Weather View 32 v70,2013-02-17 02:33:00,
2013-02-16 18:38:00,44.9,38.1,30.17,West,259,8.0,13.0,77,0.00,,,0.03,Weather View 32 v70,2013-02-17 02:38:00,
2013-02-16 18:43:00,44.9,38.1,30.17,North,0,6.0,13.0,77,0.00,,,0.03,Weather View 32 v70,2013-02-17 02:43:00,
2013-02-16 18:48:00,44.9,38.1,30.17,West,263,2.0,13.0,77,0.00,,,0.03,Weather View 32 v70,2013-02-17 02:48:00,
2013-02-16 18:53:00,44.9,38.1,30.17,SW,233,4.0,13.0,77,0.00,,,0.03,Weather View 32 v70,2013-02-17 02:53:00,
2013-02-16 18:58:00,44.8,38.0,30.17,West,267,6.0,13.0,77,0.00,,,0.03,Weather View 32 v70,2013-02-17 02:58:00,
2013-02-16 19:05:00,44.8,38.0,30.17,West,259,7.0,10.0,77,0.00,,,0.03,Weather View 32 v70,2013-02-17 03:05:00,
2013-02-16 19:10:00,44.6,37.8,30.17,West,277,4.0,11.0,77,0.00,,,0.03,Weather View 32 v70,2013-02-17 03:10:00,
2013-02-16 19:15:00,44.6,37.8,30.17,WSW,252,5.0,11.0,77,0.00,,,0.03,Weather View 32 v70,2013-02-17 03:15:00,
2013-02-16 19:20:00,44.6,37.5,30.18,WSW,246,4.0,12.0,76,0.00,,,0.03,Weather View 32 v70,2013-02-17 03:20:00,
2013-02-16 19:25:00,44.6,37.5,30.17,West,265,3.0,12.0,76,-0.03,,,0.03,Weather View 32 v70,2013-02-17 03:25:00,
2013-02-16 19:29:00,44.6,37.2,30.17,West,263,3.0,12.0,75,0.00,,,0.03,Weather View 32 v70,2013-02-17 03:29:00,
2013-02-16 19:34:00,44.6,36.5,30.17,West,268,10.0,15.0,73,0.00,,,0.03,Weather View 32 v70,2013-02-17 03:34:00,
2013-02-16 19:39:00,44.9,36.8,30.17,WSW,257,10.0,16.0,73,0.00,,,0.03,Weather View 32 v70,2013-02-17 03:39:00,
2013-02-16 19:44:00,44.8,36.3,30.17,WSW,254,8.0,16.0,72,0.00,,,0.03,Weather View 32 v70,2013-02-17 03:44:00,
2013-02-16 19:50:00,44.9,36.1,30.17,West,279,3.0,16.0,71,-0.03,,,0.03,Weather View 32 v70,2013-02-17 03:50:00,
2013-02-16 19:55:00,44.6,36.1,30.17,WSW,242,1.0,16.0,72,0.00,,,0.03,Weather View 32 v70,2013-02-17 03:55:00,
2013-02-16 20:00:00,44.5,36.0,30.17,WSW,242,0.0,16.0,72,0.00,,,0.03,Weather View 32 v70,2013-02-17 04:00:00,
2013-02-16 20:05:00,44.5,36.0,30.17,West,281,0.0,16.0,72,-0.03,,,0.03,Weather View 32 v70,2013-02-17 04:05:00,
2013-02-16 20:09:00,44.5,35.7,30.17,WSW,257,14.0,16.0,71,0.00,,,0.03,Weather View 32 v70,2013-02-17 04:09:00,
2013-02-16 20:14:00,44.5,35.7,30.17,West,275,7.0,16.0,71,0.00,,,0.03,Weather View 32 v70,2013-02-17 04:14:00,
2013-02-16 20:19:00,44.6,35.4,30.17,WNW,282,3.0,16.0,70,0.00,,,0.03,Weather View 32 v70,2013-02-17 04:19:00,
2013-02-16 20:24:00,44.6,35.4,30.17,NW,308,8.0,16.0,70,0.00,,,0.03,Weather View 32 v70,2013-02-17 04:24:00,
2013-02-16 20:29:00,44.5,35.3,30.17,WSW,240,4.0,16.0,70,0.00,,,0.03,Weather View 32 v70,2013-02-17 04:29:00,
2013-02-16 20:34:00,44.3,35.5,30.18,WNW,294,6.0,16.0,71,0.00,,,0.03,Weather View 32 v70,2013-02-17 04:34:00,
2013-02-16 20:39:00,44.2,35.4,30.18,West,279,6.0,16.0,71,0.00,,,0.03,Weather View 32 v70,2013-02-17 04:39:00,
2013-02-16 20:44:00,44.1,35.3,30.18,West,271,4.0,16.0,71,0.00,,,0.03,Weather View 32 v70,2013-02-17 04:44:00,
2013-02-16 20:49:00,43.9,34.7,30.17,West,274,8.0,16.0,70,0.00,,,0.03,Weather View 32 v70,2013-02-17 04:49:00,
2013-02-16 20:54:00,43.8,34.3,30.18,WNW,286,7.0,16.0,69,0.00,,,0.03,Weather View 32 v70,2013-02-17 04:54:00,
2013-02-16 20:59:00,43.9,34.0,30.18,West,278,4.0,17.0,68,0.00,,,0.03,Weather View 32 v70,2013-02-17 04:59:00,
2013-02-16 21:00:00,43.9,34.0,30.18,WNW,284,7.0,17.0,68,0.00,,,0.03,Weather View 32 v70,2013-02-17 05:00:00,
2013-02-16 21:05:00,43.6,34.1,30.18,SW,235,13.0,19.0,69,0.00,,,0.03,Weather View 32 v70,2013-02-17 05:05:00,
2013-02-16 21:10:00,43.6,34.1,30.18,WNW,299,3.0,19.0,69,0.00,,,0.03,Weather View 32 v70,2013-02-17 05:10:00,
2013-02-16 21:15:00,43.5,34.0,30.18,WSW,248,9.0,19.0,69,0.00,,,0.03,Weather View 32 v70,2013-02-17 05:15:00,
2013-02-16 21:20:00,43.5,34.0,30.18,WSW,240,12.0,19.0,69,0.00,,,0.03,Weather View 32 v70,2013-02-17 05:20:00,
2013-02-16 21:25:00,43.5,34.0,30.18,WNW,288,5.0,19.0,69,0.00,,,0.03,Weather View 32 v70,2013-02-17 05:25:00,
2013-02-16 21:30:00,43.3,33.8,30.18,West,280,2.0,19.0,69,0.00,,,0.03,Weather View 32 v70,2013-02-17 05:30:00,
2013-02-16 21:35:00,43.2,34.1,30.18,WNW,294,5.0,19.0,70,0.00,,,0.03,Weather View 32 v70,2013-02-17 05:35:00,
2013-02-16 21:40:00,43.1,34.0,30.18,West,265,10.0,19.0,70,0.00,,,0.03,Weather View 32 v70,2013-02-17 05:40:00,
2013-02-16 21:45:00,43.2,34.1,30.18,WSW,256,6.0,25.0,70,0.00,,,0.03,Weather View 32 v70,2013-02-17 05:45:00,
2013-02-16 21:50:00,43.1,34.3,30.17,SW,232,9.0,25.0,71,0.00,,,0.03,Weather View 32 v70,2013-02-17 05:50:00,
2013-02-16 21:55:00,42.9,34.1,30.17,West,278,4.0,25.0,71,0.00,,,0.03,Weather View 32 v70,2013-02-17 05:55:00,
2013-02-16 22:00:00,42.9,34.5,30.17,West,263,6.0,25.0,72,0.00,,,0.03,Weather View 32 v70,2013-02-17 06:00:00,
2013-02-16 22:05:00,42.9,34.5,30.16,West,277,4.0,25.0,72,0.00,,,0.03,Weather View 32 v70,2013-02-17 06:05:00,
2013-02-16 22:10:00,42.8,34.7,30.16,West,270,1.0,25.0,73,0.00,,,0.03,Weather View 32 v70,2013-02-17 06:10:00,
2013-02-16 22:15:00,42.6,34.5,30.16,West,271,7.0,28.0,73,0.00,,,0.03,Weather View 32 v70,2013-02-17 06:15:00,
2013-02-16 22:20:00,42.5,34.8,30.16,WSW,251,6.0,28.0,74,0.00,,,0.03,Weather View 32 v70,2013-02-17 06:20:00,
2013-02-16 22:25:00,42.3,34.9,30.16,WNW,283,2.0,28.0,75,0.00,,,0.03,Weather View 32 v70,2013-02-17 06:25:00,
2013-02-16 22:30:00,42.3,34.9,30.16,West,280,6.0,28.0,75,0.00,,,0.03,Weather View 32 v70,2013-02-17 06:30:00,
2013-02-16 22:35:00,42.3,34.9,30.16,West,263,5.0,28.0,75,0.00,,,0.03,Weather View 32 v70,2013-02-17 06:35:00,
2013-02-16 22:40:00,42.3,34.6,30.16,WNW,300,4.0,28.0,74,0.00,,,0.03,Weather View 32 v70,2013-02-17 06:40:00,
2013-02-16 22:45:00,42.5,34.8,30.16,West,268,7.0,28.0,74,0.00,,,0.03,Weather View 32 v70,2013-02-17 06:45:00,
2013-02-16 22:50:00,42.5,34.4,30.16,WSW,252,14.0,28.0,73,0.00,,,0.03,Weather View 32 v70,2013-02-17 06:50:00,
2013-02-16 22:55:00,42.5,34.8,30.16,WNW,294,2.0,28.0,74,0.00,,,0.03,Weather View 32 v70,2013-02-17 06:55:00,
2013-02-16 23:00:00,42.3,34.6,30.17,West,275,4.0,28.0,74,0.00,,,0.03,Weather View 32 v70,2013-02-17 07:00:00,
2013-02-16 23:05:00,42.3,34.6,30.17,WNW,296,0.0,28.0,74,0.00,,,0.03,Weather View 32 v70,2013-02-17 07:05:00,
2013-02-16 23:10:00,42.2,34.5,30.17,West,268,10.0,28.0,74,0.00,,,0.03,Weather View 32 v70,2013-02-17 07:10:00,
2013-02-16 23:15:00,42.3,34.6,30.17,West,270,7.0,28.0,74,0.00,,,0.03,Weather View 32 v70,2013-02-17 07:15:00,
2013-02-16 23:20:00,42.3,34.6,30.17,West,270,6.0,28.0,74,0.00,,,0.03,Weather View 32 v70,2013-02-17 07:20:00,
2013-02-16 23:25:00,42.3,34.6,30.16,SSW,207,7.0,28.0,74,0.00,,,0.03,Weather View 32 v70,2013-02-17 07:25:00,
2013-02-16 23:30:00,42.2,34.5,30.17,West,265,15.0,28.0,74,0.00,,,0.03,Weather View 32 v70,2013-02-17 07:30:00,
2013-02-16 23:35:00,42.2,34.8,30.17,WNW,301,3.0,28.0,75,0.00,,,0.03,Weather View 32 v70,2013-02-17 07:35:00,
2013-02-16 23:40:00,41.9,34.9,30.17,West,281,8.0,24.0,76,0.00,,,0.03,Weather View 32 v70,2013-02-17 07:40:00,
2013-02-16 23:45:00,41.9,34.9,30.17,NW,312,5.0,24.0,76,0.00,,,0.03,Weather View 32 v70,2013-02-17 07:45:00,
2013-02-16 23:50:00,41.9,34.9,30.17,West,271,6.0,24.0,76,0.00,,,0.03,Weather View 32 v70,2013-02-17 07:50:00,
2013-02-16 23:55:00,41.9,34.9,30.18,West,281,7.0,24.0,76,0.00,,,0.03,Weather View 32 v70,2013-02-17 07:55:00,